AirNav   Air Wisconsin Up To $57,000 Bonus
 
 1480 users online  

IA8 Dyersville Area Airport
Dyersville, Iowa, USA

GOING TO DYERSVILLE?


FAA INFORMATION EFFECTIVE 05 NOVEMBER 2020

Location

FAA Identifier: IA8
Lat/Long: 42-29-45.9790N 091-10-47.4920W
42-29.766317N 091-10.791533W
42.4961053,-91.1798589
(estimated)
Elevation: 980 ft. / 299 m (estimated)
Variation: 01E (1995)
From city: 2 miles NW of DYERSVILLE, IA
Time zone: UTC -6 (UTC -5 during Daylight Saving Time)
Zip code: 52040

Airport Operations

Airport use: Open to the public
Activation date: 12/1999
Control tower: no
ARTCC: CHICAGO CENTER
FSS: FORT DODGE FLIGHT SERVICE STATION
NOTAMs facility: FOD (NOTAM-D service available)
Attendance: UNATNDD
Wind indicator: yes
Segmented circle: no
Lights: ACTVT LIRL RWY 11/29 - CTAF.

Airport Communications

CTAF: 122.9
WX AWOS-3 at MXO (17 nm S): 119.275 (319-465-6155)

Nearby radio navigation aids

VOR radial/distance  VOR name  Freq  Var
DBQr281/21.6DUBUQUE VORTAC115.8004E

 
NDB name  Hdg/Dist  Freq  Var  ID
WAPSIE086/34.220600EIIB .. .. -...

Airport Services

Runway Information

Runway 11/29

Dimensions: 2700 x 120 ft. / 823 x 37 m
Surface: turf, in fair condition
Runway edge lights: non-standard
CONES WITH LIGHTS.
Runway edge markings: NSTD MKGS RY 11&29; RY EDGES MKD WITH YELLOW CONES, DSPLCD THLDS MKD WITH 3 YELLOW CONES EACH SIDE.
RUNWAY 11  RUNWAY 29
Elevation: 975.2 ft.963.8 ft.
Traffic pattern: leftright
Displaced threshold: 200 ft.
APCH 35:1 FM DSPLCD THR.
175 ft.
APCH 20:1 FM DSPLCD THR.
Markings: NSTD
Obstructions: 6 ft. gnd, 15 ft. from runway, 60 ft. left of centerline, 2:1 slope to clear15 ft. road, 125 ft. from runway, 8:1 slope to clear

Airport Ownership and Management from official FAA records

Ownership: Privately-owned
Owner: DYERSVILLE AREA AIRPORT
750 - 12TH AVENUE SW
DYERSVILLE, IA 52040
Phone 563-875-7121
ALTERNATE PHONE NUMBER(S) 563-875-8590 OR 319-480-0596.
Manager: CRAIG KRAMER
750 - 12TH AVENUE SW
DYERSVILLE, IA 52040
Phone 563-875-7121

Airport Operational Statistics

Aircraft based on the field: 4
Single engine airplanes: 3
Ultralights: 1
    
Aircraft operations: avg 62/month *
50% transient general aviation
50% local general aviation
* for 12-month period ending 18 June 2018

Additional Remarks

REMOTE CTLD ACFT INVOF ARPT.
FOR CD CTC CHICAGO ARTCC AT 630-906-8921.

Instrument Procedures

There are no published instrument procedures at IA8.

Some nearby airports with instrument procedures:

KMXO - Monticello Regional Airport (17 nm S)
KDBQ - Dubuque Regional Airport (22 nm E)
KPDC - Prairie du Chien Municipal Airport (31 nm N)
KOQW - Maquoketa Municipal Airport (33 nm SE)
KIIB - James H Connell Field at Independence Municipal Airport (34 nm W)
 
Loc | Ops | Rwys | IFR | FBO | Links
Com | Nav | Svcs | Stats | Notes
Area around IA8 (Dyersville Area Airport)
 
Road maps at: MapQuest Bing Google
 
Aerial photo
WARNING: Photo may not be current or correct
Aerial photo of IA8 (Dyersville Area Airport)
Do you have a better or more recent aerial photo of Dyersville Area Airport that you would like to share? If so, please send us your photo.

 
Sectional chart

 
Airport distance calculator
Flying to Dyersville Area Airport? Find the distance to fly.

From to IA8

Sunrise and sunset
Times for 02-Dec-2020
 Local
(UTC-6)
 Zulu
(UTC)
Morning civil twilight06:4612:46
Sunrise07:1813:18
Sunset16:3122:31
Evening civil twilight17:0323:03

Current date and time
Zulu (UTC)  02-Dec-2020 19:41:20
Local (UTC-6)  02-Dec-2020 13:41:20
 
METAR
KMXO 
17nm S 
021915Z AUTO 00000KT 10SM CLR 06/M08 A3033 RMK AO2
KDBQ 
22nm E 
021853Z 30003KT 10SM CLR 07/M09 A3033 RMK AO2 SLP281 T00721094
KPDC 
31nm N 
021915Z AUTO 00000KT 10SM CLR 06/M08 A3033 RMK AO2 T00561078
TAF
KDBQ 
22nm E 
021741Z 0218/0318 30005KT P6SM SKC FM022100 27006KT P6SM SKC FM030900 32009KT P6SM SCT020
NOTAMs
Click for the latest NOTAMs
NOTAMs are issued by the DoD/FAA and will open in a separate window not controlled by AirNav.

 

 
 

Would you like to see your business listed on this page?

 If your business provides an interesting product or service to pilots, flight crews, aircraft, or users of the Dyersville Area Airport, you should consider listing it here.  To start the listing process, click on the button below
 
Add a business
 

Other Pages about Dyersville Area Airport

www.dyersvilleairport.com
 
Update a link
 
Copyright © AirNav, LLC. All rights reserved. Privacy Policy  Contact